TimeCST,TemperatureF,Dew PointF,Humidity,Sea Level PressureIn,VisibilityMPH,Wind Direction,Wind SpeedMPH,Gust SpeedMPH,PrecipitationIn,Events,Conditions,WindDirDegrees,DateUTC
12:53 AM,39.0,28.9,67,30.32,10.0,NNE,8.1,-,N/A,,Scattered Clouds,20,2013-01-22 06:53:00
1:53 AM,39.0,27.0,62,30.34,10.0,NE,5.8,-,N/A,,Mostly Cloudy,40,2013-01-22 07:53:00
2:53 AM,39.0,27.0,62,30.35,10.0,NNE,8.1,-,N/A,,Overcast,30,2013-01-22 08:53:00
3:53 AM,39.0,26.1,60,30.35,10.0,NE,8.1,-,N/A,,Overcast,50,2013-01-22 09:53:00
4:53 AM,39.0,25.0,57,30.36,10.0,NE,10.4,-,N/A,,Overcast,50,2013-01-22 10:53:00
5:53 AM,37.9,24.1,57,30.38,10.0,ENE,8.1,-,N/A,,Mostly Cloudy,60,2013-01-22 11:53:00
6:53 AM,37.9,25.0,60,30.39,10.0,East,5.8,-,N/A,,Overcast,80,2013-01-22 12:53:00
7:53 AM,39.0,24.1,55,30.40,10.0,East,8.1,-,N/A,,Overcast,80,2013-01-22 13:53:00
8:53 AM,39.9,24.1,53,30.41,10.0,East,8.1,-,N/A,,Overcast,90,2013-01-22 14:53:00
9:53 AM,42.1,25.0,51,30.43,10.0,ESE,6.9,-,N/A,,Overcast,110,2013-01-22 15:53:00
10:53 AM,45.0,24.1,44,30.42,10.0,East,5.8,-,N/A,,Overcast,100,2013-01-22 16:53:00
11:53 AM,46.9,25.0,42,30.41,10.0,ENE,4.6,-,N/A,,Overcast,60,2013-01-22 17:53:00
12:53 PM,48.9,24.1,38,30.38,10.0,Calm,Calm,-,N/A,,Overcast,0,2013-01-22 18:53:00
1:53 PM,50.0,27.0,41,30.35,10.0,ESE,5.8,-,N/A,,Scattered Clouds,110,2013-01-22 19:53:00
2:53 PM,52.0,27.0,38,30.34,10.0,Calm,Calm,-,N/A,,Mostly Cloudy,0,2013-01-22 20:53:00
3:53 PM,53.1,27.0,37,30.34,10.0,Calm,Calm,-,N/A,,Mostly Cloudy,0,2013-01-22 21:53:00
4:53 PM,52.0,28.9,41,30.33,10.0,Calm,Calm,-,N/A,,Clear,0,2013-01-22 22:53:00
5:53 PM,48.0,33.1,56,30.34,10.0,North,4.6,-,N/A,,Scattered Clouds,360,2013-01-22 23:53:00
6:53 PM,45.0,30.9,58,30.35,10.0,NE,4.6,-,N/A,,Clear,40,2013-01-23 00:53:00
7:53 PM,44.1,30.9,60,30.36,10.0,NE,3.5,-,N/A,,Clear,50,2013-01-23 01:53:00
8:53 PM,42.1,32.0,67,30.36,10.0,Calm,Calm,-,N/A,,Scattered Clouds,0,2013-01-23 02:53:00
9:53 PM,42.1,36.0,79,30.35,10.0,SE,3.5,-,N/A,,Mostly Cloudy,140,2013-01-23 03:53:00
10:53 PM,42.1,33.1,70,30.35,10.0,SSE,4.6,-,N/A,,Scattered Clouds,150,2013-01-23 04:53:00
11:53 PM,39.9,35.1,83,30.34,10.0,Calm,Calm,-,N/A,,Clear,0,2013-01-23 05:53:00